Killeen/Ft Hood, TX

2:44 AM CDT on July 24, 2017 (GMT -0500)
Hood Army Air Field

Weather History for KHLR - September, 2014

Change the Weather History Date:

Saturday, September 27, 2014

  Actual Average Record
Temperature  
Mean Temperature 78 °F -  
Max Temperature 86 °F 84 °F 98 °F (2005)
Min Temperature 72 °F 64 °F 50 °F (1996)
Cooling Degree Days 13    
Growing Degree Days 28 (Base 50)    
Moisture  
Dew Point 64 °F    
Average Humidity 62    
Maximum Humidity 78    
Minimum Humidity 44    
Precipitation  
Precipitation 0.00 in - - ()
Sea Level Pressure  
Sea Level Pressure 30.06 in    
Wind  
Wind Speed 3 mph (ESE)    
Max Wind Speed 8 mph    
Max Gust Speed -    
Visibility 10 miles    
Events      
Averages and records for this station are not official NWS values.
T = Trace of Precipitation, MM = Missing Value Source: NWS Daily Summary

Daily Weather History Graph

Daily Weather History Graph

Search for Another Location

Airport or City:

Trip Planner

Search our weather history database for the weather conditions in past years. The results will help you decide how hot, cold, wet, or windy it might be!

Date:

Astronomy

Sep. 27, 2014 Rise Set
Actual Time 7:22 AM CDT 7:20 PM CDT
Civil Twilight 6:57 AM CDT 7:45 PM CDT
Nautical Twilight 6:29 AM CDT 8:13 PM CDT
Astronomical Twilight 6:01 AM CDT 8:41 PM CDT
Moon 10:25 AM CDT (9/27) 9:35 PM CDT (9/27)
Length of Visible Light 12h 47m
Length of Day
11h 58m
Waxing Crescent, 11% of the Moon is Illuminated
Sep 27
Waxing Crescent
Oct 1
First Quarter
Oct 8
Full
Oct 15
Last Quarter
Oct 23
New

Hourly Weather History & Observations

Time (CDT) Temp. Heat Index Dew Point Humidity Pressure Visibility Wind Dir Wind Speed Gust Speed Precip Events Conditions
12:56 AM 75.0 °F - 64.0 °F 69% 30.05 in 10.0 mi ESE 4.6 mph - N/A   Clear
1:56 AM 75.0 °F - 64.0 °F 69% 30.06 in 10.0 mi Calm Calm - N/A   Clear
2:56 AM 73.9 °F - 64.0 °F 71% 30.05 in 10.0 mi Calm Calm - N/A   Clear
3:56 AM 73.0 °F - 64.0 °F 73% 30.04 in 10.0 mi Calm Calm - N/A   Clear
4:56 AM 73.0 °F - 64.0 °F 73% 30.04 in 10.0 mi Calm Calm - N/A   Clear
5:56 AM 72.0 °F - 64.9 °F 78% 30.04 in 10.0 mi Calm Calm - N/A   Clear
6:56 AM 73.0 °F - 64.9 °F 76% 30.12 in 10.0 mi North 3.5 mph - N/A   Partly Cloudy
7:56 AM 73.0 °F - 64.9 °F 76% 30.14 in 10.0 mi Calm Calm - N/A   Overcast
8:56 AM 73.9 °F - 66.0 °F 76% 30.14 in 10.0 mi Calm Calm - N/A   Partly Cloudy
9:56 AM 78.1 °F - 64.9 °F 64% 30.14 in 10.0 mi NE 3.5 mph - N/A   Clear
10:56 AM 81.0 °F 82.5 °F 64.0 °F 56% 30.15 in 10.0 mi East 5.8 mph - N/A   Mostly Cloudy
11:56 AM 84.0 °F 84.9 °F 63.0 °F 49% 30.14 in 10.0 mi East 8.1 mph - N/A   Overcast
12:56 PM 82.9 °F 83.7 °F 62.1 °F 49% 30.13 in 10.0 mi ESE 4.6 mph - N/A   Overcast
1:56 PM 84.9 °F 85.0 °F 61.0 °F 44% 30.10 in 10.0 mi Calm Calm - N/A   Overcast
2:56 PM 82.9 °F 84.0 °F 63.0 °F 51% 30.08 in 10.0 mi East 8.1 mph - N/A   Overcast
3:56 PM 84.0 °F 84.5 °F 62.1 °F 47% 30.00 in 10.0 mi Variable 5.8 mph - N/A   Mostly Cloudy
4:56 PM 82.9 °F 83.2 °F 60.1 °F 46% 29.99 in 10.0 mi ESE 6.9 mph - N/A   Overcast
5:56 PM 82.0 °F 83.0 °F 62.1 °F 51% 29.99 in 10.0 mi SE 5.8 mph - N/A   Partly Cloudy
6:56 PM 81.0 °F 81.9 °F 62.1 °F 52% 29.99 in 10.0 mi SE 6.9 mph - N/A   Scattered Clouds
7:56 PM 80.1 °F 81.2 °F 62.1 °F 54% 30.00 in 10.0 mi ESE 4.6 mph - N/A   Scattered Clouds
8:56 PM 78.1 °F - 63.0 °F 60% 30.01 in 10.0 mi Calm Calm - N/A   Scattered Clouds
9:56 PM 78.1 °F - 64.0 °F 62% 30.03 in 10.0 mi ESE 3.5 mph - N/A   Overcast
10:56 PM 77.0 °F - 64.9 °F 66% 30.03 in 10.0 mi SE 4.6 mph - N/A   Overcast
11:56 PM 75.0 °F - 66.0 °F 73% 30.03 in 10.0 mi Calm Calm - N/A   Clear